Terminal Aerodrome Forecast
Issued by NWS Portland, OR

Home | Current Version | Previous Version | Text Only | Print | Product List | Glossary On
Versions: 1 2 3 4 5 6 7 8 9 10 11 12 13 14 15 16 17 18 19 20 21 22 23 24 25 26 27 28 29 30 31 32 33 34 35 36 37 38 39 40 41 42 43 44 45 46 47 48 49 50
294
FTUS46 KPQR 251741
TAFPDX
TAF
KPDX 251741Z 2518/2618 00000KT P6SM BKN005 BKN060
     FM251830 27002KT P6SM SCT060
     FM260200 22004KT P6SM OVC050
     FM260900 17010KT P6SM -RA OVC025=

USA.gov is the U.S. government's official web portal to all federal, state and local government web resources and services.